<?xml version='1.0' encoding='UTF-8'?>
<gpx xmlns="http://www.topografix.com/GPX/1/1" creator="www.balnam.be" version="1.1" xmlns:xsi="http://www.w3.org/2001/XMLSchema-instance" xsi:schemaLocation="http://www.topografix.com/GPX/1/1 http://www.topografix.com/GPX/1/1/gpx.xsd">
<trk>
<name>negtv1</name>
<cmt>r</cmt>
<desc>Taviers Chemin n°1 Route de la Hesbaye</desc>
<link href="https://chemins.be/taviers/chemin/1"/><trkseg>
<trkpt lat="50.614050" lon="4.913696"><time>2026-05-09T23:37:13Z</time></trkpt>
<trkpt lat="50.614427" lon="4.915679"><time>2026-05-09T23:47:13Z</time></trkpt>
<trkpt lat="50.615393" lon="4.918827"><time>2026-05-09T23:57:13Z</time></trkpt>
<trkpt lat="50.615531" lon="4.919945"><time>2026-05-10T00:07:13Z</time></trkpt>
<trkpt lat="50.615961" lon="4.922282"><time>2026-05-10T00:17:13Z</time></trkpt>
<trkpt lat="50.616612" lon="4.925129"><time>2026-05-10T00:27:13Z</time></trkpt>
<trkpt lat="50.617289" lon="4.926452"><time>2026-05-10T00:37:13Z</time></trkpt>
<trkpt lat="50.617926" lon="4.930501"><time>2026-05-10T00:47:13Z</time></trkpt>
<trkpt lat="50.618524" lon="4.931454"><time>2026-05-10T00:57:13Z</time></trkpt>
<trkpt lat="50.619257" lon="4.934233"><time>2026-05-10T01:07:13Z</time></trkpt>
<trkpt lat="50.620584" lon="4.936750"><time>2026-05-10T01:17:13Z</time></trkpt>
<trkpt lat="50.621600" lon="4.942203"><time>2026-05-10T01:27:13Z</time></trkpt>
<trkpt lat="50.621445" lon="4.942611"><time>2026-05-10T01:37:13Z</time></trkpt>
<trkpt lat="50.622473" lon="4.947415"><time>2026-05-10T01:47:13Z</time></trkpt>
</trkseg>
</trk>
<trk>
<name>negtv10</name>
<cmt>r</cmt>
<desc>Taviers Chemin n°10 Rue du Plangelois</desc>
<link href="https://chemins.be/taviers/chemin/10"/><trkseg>
<trkpt lat="50.615839" lon="4.921404"><time>2026-05-09T23:37:13Z</time></trkpt>
<trkpt lat="50.617837" lon="4.920961"><time>2026-05-09T23:47:13Z</time></trkpt>
<trkpt lat="50.619155" lon="4.921768"><time>2026-05-09T23:57:13Z</time></trkpt>
</trkseg></trk>
<trk>
<name>negtv10</name>
<cmt>s</cmt>
<desc>Taviers Chemin n°10 Rue du Plangelois</desc>
<link href="https://chemins.be/taviers/chemin/10"/><trkseg>
<trkpt lat="50.619155" lon="4.921768"><time>2026-05-09T23:57:13Z</time></trkpt>
<trkpt lat="50.619782" lon="4.922185"><time>2026-05-10T00:07:13Z</time></trkpt>
<trkpt lat="50.620070" lon="4.922146"><time>2026-05-10T00:17:13Z</time></trkpt>
<trkpt lat="50.621942" lon="4.921716"><time>2026-05-10T00:27:13Z</time></trkpt>
</trkseg></trk>
<trk>
<name>negtv10</name>
<cmt>v</cmt>
<desc>Taviers Chemin n°10 Rue du Plangelois</desc>
<link href="https://chemins.be/taviers/chemin/10"/><trkseg>
<trkpt lat="50.621942" lon="4.921716"><time>2026-05-10T00:27:13Z</time></trkpt>
<trkpt lat="50.623508" lon="4.921381"><time>2026-05-10T00:37:13Z</time></trkpt>
<trkpt lat="50.624517" lon="4.920870"><time>2026-05-10T00:47:13Z</time></trkpt>
</trkseg></trk>
<trk>
<name>negtv10</name>
<cmt>s</cmt>
<desc>Taviers Chemin n°10 Rue du Plangelois</desc>
<link href="https://chemins.be/taviers/chemin/10"/><trkseg>
<trkpt lat="50.624517" lon="4.920870"><time>2026-05-10T00:47:13Z</time></trkpt>
<trkpt lat="50.625668" lon="4.920714"><time>2026-05-10T00:57:13Z</time></trkpt>
</trkseg>
</trk>
<trk>
<name>negtv10bis</name>
<cmt>s</cmt>
<desc>Taviers Chemin n°10bis </desc>
<link href="https://chemins.be/taviers/chemin/10bis"/><trkseg>
<trkpt lat="50.619054" lon="4.922021"><time>2026-05-09T23:37:13Z</time></trkpt>
<trkpt lat="50.620005" lon="4.922484"><time>2026-05-09T23:47:13Z</time></trkpt>
<trkpt lat="50.623327" lon="4.921661"><time>2026-05-09T23:57:13Z</time></trkpt>
</trkseg>
</trk>
<trk>
<name>negtv12</name>
<cmt>v</cmt>
<desc>Taviers Chemin n°12 </desc>
<link href="https://chemins.be/taviers/chemin/12"/><trkseg>
<trkpt lat="50.623877" lon="4.913626"><time>2026-05-09T23:37:13Z</time></trkpt>
<trkpt lat="50.625787" lon="4.914609"><time>2026-05-09T23:47:13Z</time></trkpt>
</trkseg>
</trk>
<trk>
<name>negtv14</name>
<cmt>v</cmt>
<desc>Taviers Chemin n°14 </desc>
<link href="https://chemins.be/taviers/chemin/14"/><trkseg>
<trkpt lat="50.615871" lon="4.915961"><time>2026-05-09T23:37:13Z</time></trkpt>
<trkpt lat="50.616581" lon="4.914644"><time>2026-05-09T23:47:13Z</time></trkpt>
<trkpt lat="50.617240" lon="4.914115"><time>2026-05-09T23:57:13Z</time></trkpt>
<trkpt lat="50.617262" lon="4.913182"><time>2026-05-10T00:07:13Z</time></trkpt>
<trkpt lat="50.617785" lon="4.912793"><time>2026-05-10T00:17:13Z</time></trkpt>
<trkpt lat="50.618296" lon="4.913081"><time>2026-05-10T00:27:13Z</time></trkpt>
<trkpt lat="50.618714" lon="4.912267"><time>2026-05-10T00:37:13Z</time></trkpt>
<trkpt lat="50.618735" lon="4.911645"><time>2026-05-10T00:47:13Z</time></trkpt>
<trkpt lat="50.619109" lon="4.910378"><time>2026-05-10T00:57:13Z</time></trkpt>
<trkpt lat="50.618967" lon="4.905889"><time>2026-05-10T01:07:13Z</time></trkpt>
<trkpt lat="50.619033" lon="4.903486"><time>2026-05-10T01:17:13Z</time></trkpt>
</trkseg>
</trk>
<trk>
<name>negtv15</name>
<cmt>r</cmt>
<desc>Taviers Chemin n°15 Rue Ernest Féron</desc>
<link href="https://chemins.be/taviers/chemin/15"/><trkseg>
<trkpt lat="50.613369" lon="4.928327"><time>2026-05-09T23:37:13Z</time></trkpt>
<trkpt lat="50.613548" lon="4.930406"><time>2026-05-09T23:47:13Z</time></trkpt>
<trkpt lat="50.613544" lon="4.931240"><time>2026-05-09T23:57:13Z</time></trkpt>
<trkpt lat="50.613433" lon="4.931846"><time>2026-05-10T00:07:13Z</time></trkpt>
</trkseg>
</trk>
<trk>
<name>negtv16</name>
<cmt>r</cmt>
<desc>Taviers Chemin n°16 Rue du Warichet</desc>
<link href="https://chemins.be/taviers/chemin/16"/><trkseg>
<trkpt lat="50.617224" lon="4.926960"><time>2026-05-09T23:37:13Z</time></trkpt>
<trkpt lat="50.616976" lon="4.928045"><time>2026-05-09T23:47:13Z</time></trkpt>
<trkpt lat="50.616928" lon="4.928666"><time>2026-05-09T23:57:13Z</time></trkpt>
<trkpt lat="50.616666" lon="4.928959"><time>2026-05-10T00:07:13Z</time></trkpt>
<trkpt lat="50.617106" lon="4.930872"><time>2026-05-10T00:17:13Z</time></trkpt>
<trkpt lat="50.617804" lon="4.933410"><time>2026-05-10T00:27:13Z</time></trkpt>
</trkseg>
</trk>
<trk>
<name>negtv17</name>
<cmt>r</cmt>
<desc>Taviers Chemin n°17 Rue de Franquennée</desc>
<link href="https://chemins.be/taviers/chemin/17"/><trkseg>
<trkpt lat="50.621365" lon="4.942455"><time>2026-05-09T23:37:13Z</time></trkpt>
<trkpt lat="50.620590" lon="4.942883"><time>2026-05-09T23:47:13Z</time></trkpt>
<trkpt lat="50.619716" lon="4.943325"><time>2026-05-09T23:57:13Z</time></trkpt>
<trkpt lat="50.619863" lon="4.944373"><time>2026-05-10T00:07:13Z</time></trkpt>
<trkpt lat="50.619791" lon="4.944456"><time>2026-05-10T00:17:13Z</time></trkpt>
</trkseg>
</trk>
<trk>
<name>negtv18</name>
<cmt>r</cmt>
<desc>Taviers Chemin n°18 Rue de Francquenée</desc>
<link href="https://chemins.be/taviers/chemin/18"/><trkseg>
<trkpt lat="50.620159" lon="4.940815"><time>2026-05-09T23:37:13Z</time></trkpt>
<trkpt lat="50.620431" lon="4.942175"><time>2026-05-09T23:47:13Z</time></trkpt>
<trkpt lat="50.620553" lon="4.942954"><time>2026-05-09T23:57:13Z</time></trkpt>
</trkseg>
</trk>
<trk>
<name>negtv19</name>
<cmt>b</cmt>
<desc>Taviers Chemin n°19 Rue du Warichet / ?</desc>
<link href="https://chemins.be/taviers/chemin/19"/><trkseg>
<trkpt lat="50.618892" lon="4.933423"><time>2026-05-09T23:37:13Z</time></trkpt>
<trkpt lat="50.618692" lon="4.933788"><time>2026-05-09T23:47:13Z</time></trkpt>
</trkseg></trk>
<trk>
<name>negtv19</name>
<cmt>r</cmt>
<desc>Taviers Chemin n°19 Rue du Warichet / ?</desc>
<link href="https://chemins.be/taviers/chemin/19"/><trkseg>
<trkpt lat="50.618692" lon="4.933788"><time>2026-05-09T23:47:13Z</time></trkpt>
<trkpt lat="50.617822" lon="4.933495"><time>2026-05-09T23:57:13Z</time></trkpt>
</trkseg></trk>
<trk>
<name>negtv19</name>
<cmt>v</cmt>
<desc>Taviers Chemin n°19 Rue du Warichet / ?</desc>
<link href="https://chemins.be/taviers/chemin/19"/><trkseg>
<trkpt lat="50.617822" lon="4.933495"><time>2026-05-09T23:57:13Z</time></trkpt>
<trkpt lat="50.616639" lon="4.934583"><time>2026-05-10T00:07:13Z</time></trkpt>
</trkseg>
</trk>
<trk>
<name>negtv2</name>
<cmt>r</cmt>
<desc>Taviers Chemin n°2 Rue Ernest Feron</desc>
<link href="https://chemins.be/taviers/chemin/2"/><trkseg>
<trkpt lat="50.616522" lon="4.928887"><time>2026-05-09T23:37:13Z</time></trkpt>
<trkpt lat="50.615240" lon="4.928236"><time>2026-05-09T23:47:13Z</time></trkpt>
<trkpt lat="50.614320" lon="4.926968"><time>2026-05-09T23:57:13Z</time></trkpt>
<trkpt lat="50.613357" lon="4.925246"><time>2026-05-10T00:07:13Z</time></trkpt>
<trkpt lat="50.613087" lon="4.923449"><time>2026-05-10T00:17:13Z</time></trkpt>
<trkpt lat="50.612892" lon="4.921045"><time>2026-05-10T00:27:13Z</time></trkpt>
<trkpt lat="50.612502" lon="4.919839"><time>2026-05-10T00:37:13Z</time></trkpt>
<trkpt lat="50.611771" lon="4.918531"><time>2026-05-10T00:47:13Z</time></trkpt>
</trkseg>
</trk>
<trk>
<name>negtv20</name>
<cmt>r</cmt>
<desc>Taviers Chemin n°20 Bas Tige</desc>
<link href="https://chemins.be/taviers/chemin/20"/><trkseg>
<trkpt lat="50.621356" lon="4.918162"><time>2026-05-09T23:37:13Z</time></trkpt>
<trkpt lat="50.622341" lon="4.917170"><time>2026-05-09T23:47:13Z</time></trkpt>
</trkseg>
</trk>
<trk>
<name>negtv21</name>
<cmt>r</cmt>
<desc>Taviers Sentier n°21 Route de la Hesbaye</desc>
<link href="https://chemins.be/taviers/sentier/21"/><trkseg>
<trkpt lat="50.621654" lon="4.942289"><time>2026-05-09T23:37:13Z</time></trkpt>
<trkpt lat="50.625009" lon="4.939941"><time>2026-05-09T23:47:13Z</time></trkpt>
</trkseg></trk>
<trk>
<name>negtv21</name>
<cmt>s</cmt>
<desc>Taviers Sentier n°21 Route de la Hesbaye</desc>
<link href="https://chemins.be/taviers/sentier/21"/><trkseg>
<trkpt lat="50.625009" lon="4.939941"><time>2026-05-09T23:47:13Z</time></trkpt>
<trkpt lat="50.626985" lon="4.938580"><time>2026-05-09T23:57:13Z</time></trkpt>
</trkseg>
</trk>
<trk>
<name>negtv22</name>
<cmt>q</cmt>
<desc>Taviers Chemin n°22 </desc>
<link href="https://chemins.be/taviers/chemin/22"/><trkseg>
<trkpt lat="50.613530" lon="4.930477"><time>2026-05-09T23:37:13Z</time></trkpt>
<trkpt lat="50.612889" lon="4.930949"><time>2026-05-09T23:47:13Z</time></trkpt>
<trkpt lat="50.612468" lon="4.930633"><time>2026-05-09T23:57:13Z</time></trkpt>
</trkseg>
</trk>
<trk>
<name>negtv23</name>
<cmt>v</cmt>
<desc>Taviers Sentier n°23 </desc>
<link href="https://chemins.be/taviers/sentier/23"/><trkseg>
<trkpt lat="50.610294" lon="4.928418"><time>2026-05-09T23:37:13Z</time></trkpt>
<trkpt lat="50.611699" lon="4.929819"><time>2026-05-09T23:47:13Z</time></trkpt>
</trkseg>
</trk>
<trk>
<name>negtv23bis</name>
<cmt>r</cmt>
<desc>Taviers Chemin n°23bis Place de Taviers</desc>
<link href="https://chemins.be/taviers/chemin/23bis"/><trkseg>
<trkpt lat="50.616900" lon="4.930799"><time>2026-05-09T23:37:13Z</time></trkpt>
<trkpt lat="50.616765" lon="4.930854"><time>2026-05-09T23:47:13Z</time></trkpt>
<trkpt lat="50.616530" lon="4.931049"><time>2026-05-09T23:57:13Z</time></trkpt>
</trkseg>
</trk>
<trk>
<name>negtv24</name>
<cmt>s</cmt>
<desc>Taviers Sentier n°24 </desc>
<link href="https://chemins.be/taviers/sentier/24"/><trkseg>
<trkpt lat="50.627077" lon="4.938115"><time>2026-05-09T23:37:13Z</time></trkpt>
<trkpt lat="50.632561" lon="4.934407"><time>2026-05-09T23:47:13Z</time></trkpt>
</trkseg>
</trk>
<trk>
<name>negtv25</name>
<cmt>s</cmt>
<desc>Taviers Sentier n°25 </desc>
<link href="https://chemins.be/taviers/sentier/25"/><trkseg>
<trkpt lat="50.623219" lon="4.904164"><time>2026-05-09T23:37:13Z</time></trkpt>
<trkpt lat="50.623958" lon="4.899808"><time>2026-05-09T23:47:13Z</time></trkpt>
</trkseg>
</trk>
<trk>
<name>negtv26</name>
<cmt>q</cmt>
<desc>Taviers Sentier n°26 </desc>
<link href="https://chemins.be/taviers/sentier/26"/><trkseg>
<trkpt lat="50.622489" lon="4.900623"><time>2026-05-09T23:37:13Z</time></trkpt>
<trkpt lat="50.621510" lon="4.901378"><time>2026-05-09T23:47:13Z</time></trkpt>
</trkseg></trk>
<trk>
<name>negtv26</name>
<cmt>d</cmt>
<desc>Taviers Sentier n°26 </desc>
<link href="https://chemins.be/taviers/sentier/26"/><trkseg>
<trkpt lat="50.621510" lon="4.901378"><time>2026-05-09T23:47:13Z</time></trkpt>
<trkpt lat="50.620468" lon="4.902183"><time>2026-05-09T23:57:13Z</time></trkpt>
<trkpt lat="50.619081" lon="4.903384"><time>2026-05-10T00:07:13Z</time></trkpt>
</trkseg>
</trk>
<trk>
<name>negtv27</name>
<cmt>d</cmt>
<desc>Taviers Sentier n°27 </desc>
<link href="https://chemins.be/taviers/sentier/27"/><trkseg>
<trkpt lat="50.619811" lon="4.914173"><time>2026-05-09T23:37:13Z</time></trkpt>
<trkpt lat="50.620271" lon="4.913853"><time>2026-05-09T23:47:13Z</time></trkpt>
</trkseg></trk>
<trk>
<name>negtv27</name>
<cmt>s</cmt>
<desc>Taviers Sentier n°27 </desc>
<link href="https://chemins.be/taviers/sentier/27"/><trkseg>
<trkpt lat="50.620271" lon="4.913853"><time>2026-05-09T23:47:13Z</time></trkpt>
<trkpt lat="50.620388" lon="4.913770"><time>2026-05-09T23:57:13Z</time></trkpt>
<trkpt lat="50.621684" lon="4.913474"><time>2026-05-10T00:07:13Z</time></trkpt>
<trkpt lat="50.622594" lon="4.913018"><time>2026-05-10T00:17:13Z</time></trkpt>
</trkseg>
</trk>
<trk>
<name>negtv28</name>
<cmt>d</cmt>
<desc>Taviers Sentier n°28 </desc>
<link href="https://chemins.be/taviers/sentier/28"/><trkseg>
<trkpt lat="50.617764" lon="4.925030"><time>2026-05-09T23:37:13Z</time></trkpt>
<trkpt lat="50.617360" lon="4.922821"><time>2026-05-09T23:47:13Z</time></trkpt>
<trkpt lat="50.617443" lon="4.922274"><time>2026-05-09T23:57:13Z</time></trkpt>
</trkseg></trk>
<trk>
<name>negtv28</name>
<cmt>v</cmt>
<desc>Taviers Sentier n°28 </desc>
<link href="https://chemins.be/taviers/sentier/28"/><trkseg>
<trkpt lat="50.617443" lon="4.922274"><time>2026-05-09T23:57:13Z</time></trkpt>
<trkpt lat="50.617808" lon="4.920972"><time>2026-05-10T00:07:13Z</time></trkpt>
</trkseg></trk>
<trk>
<name>negtv28</name>
<cmt>s</cmt>
<desc>Taviers Sentier n°28 </desc>
<link href="https://chemins.be/taviers/sentier/28"/><trkseg>
<trkpt lat="50.617808" lon="4.920972"><time>2026-05-10T00:07:13Z</time></trkpt>
<trkpt lat="50.617807" lon="4.919717"><time>2026-05-10T00:17:13Z</time></trkpt>
</trkseg></trk>
<trk>
<name>negtv28</name>
<cmt>d</cmt>
<desc>Taviers Sentier n°28 </desc>
<link href="https://chemins.be/taviers/sentier/28"/><trkseg>
<trkpt lat="50.617807" lon="4.919717"><time>2026-05-10T00:17:13Z</time></trkpt>
<trkpt lat="50.617801" lon="4.919124"><time>2026-05-10T00:27:13Z</time></trkpt>
<trkpt lat="50.617686" lon="4.918600"><time>2026-05-10T00:37:13Z</time></trkpt>
</trkseg></trk>
<trk>
<name>negtv28</name>
<cmt>s</cmt>
<desc>Taviers Sentier n°28 </desc>
<link href="https://chemins.be/taviers/sentier/28"/><trkseg>
<trkpt lat="50.617686" lon="4.918600"><time>2026-05-10T00:37:13Z</time></trkpt>
<trkpt lat="50.618073" lon="4.916682"><time>2026-05-10T00:47:13Z</time></trkpt>
</trkseg>
</trk>
<trk>
<name>negtv29</name>
<cmt>s</cmt>
<desc>Taviers Sentier n°29 </desc>
<link href="https://chemins.be/taviers/sentier/29"/><trkseg>
<trkpt lat="50.618678" lon="4.931131"><time>2026-05-09T23:37:13Z</time></trkpt>
<trkpt lat="50.624013" lon="4.928467"><time>2026-05-09T23:47:13Z</time></trkpt>
<trkpt lat="50.626977" lon="4.927188"><time>2026-05-09T23:57:13Z</time></trkpt>
</trkseg>
</trk>
<trk>
<name>negtv3</name>
<cmt>r</cmt>
<desc>Taviers Chemin n°3 Bas Tige / Route de Ramillies / Route des Ramilles</desc>
<link href="https://chemins.be/taviers/chemin/3"/><trkseg>
<trkpt lat="50.617397" lon="4.926552"><time>2026-05-09T23:37:13Z</time></trkpt>
<trkpt lat="50.617641" lon="4.926131"><time>2026-05-09T23:47:13Z</time></trkpt>
<trkpt lat="50.619091" lon="4.921979"><time>2026-05-09T23:57:13Z</time></trkpt>
<trkpt lat="50.620308" lon="4.919323"><time>2026-05-10T00:07:13Z</time></trkpt>
<trkpt lat="50.621329" lon="4.918176"><time>2026-05-10T00:17:13Z</time></trkpt>
<trkpt lat="50.621309" lon="4.916819"><time>2026-05-10T00:27:13Z</time></trkpt>
<trkpt lat="50.623713" lon="4.910105"><time>2026-05-10T00:37:13Z</time></trkpt>
<trkpt lat="50.626530" lon="4.903778"><time>2026-05-10T00:47:13Z</time></trkpt>
<trkpt lat="50.628919" lon="4.900314"><time>2026-05-10T00:57:13Z</time></trkpt>
</trkseg>
</trk>
<trk>
<name>negtv30</name>
<cmt>q</cmt>
<desc>Taviers Sentier n°30 </desc>
<link href="https://chemins.be/taviers/sentier/30"/><trkseg>
<trkpt lat="50.621023" lon="4.918299"><time>2026-05-09T23:37:13Z</time></trkpt>
<trkpt lat="50.620703" lon="4.917575"><time>2026-05-09T23:47:13Z</time></trkpt>
<trkpt lat="50.620697" lon="4.916854"><time>2026-05-09T23:57:13Z</time></trkpt>
</trkseg>
</trk>
<trk>
<name>negtv31</name>
<cmt>s</cmt>
<desc>Taviers Sentier n°31 </desc>
<link href="https://chemins.be/taviers/sentier/31"/><trkseg>
<trkpt lat="50.616859" lon="4.927958"><time>2026-05-09T23:37:13Z</time></trkpt>
<trkpt lat="50.616078" lon="4.925929"><time>2026-05-09T23:47:13Z</time></trkpt>
<trkpt lat="50.615595" lon="4.925344"><time>2026-05-09T23:57:13Z</time></trkpt>
<trkpt lat="50.615596" lon="4.925103"><time>2026-05-10T00:07:13Z</time></trkpt>
<trkpt lat="50.615421" lon="4.924268"><time>2026-05-10T00:17:13Z</time></trkpt>
<trkpt lat="50.615313" lon="4.924323"><time>2026-05-10T00:27:13Z</time></trkpt>
<trkpt lat="50.615363" lon="4.925086"><time>2026-05-10T00:37:13Z</time></trkpt>
<trkpt lat="50.614464" lon="4.924963"><time>2026-05-10T00:47:13Z</time></trkpt>
<trkpt lat="50.614063" lon="4.926244"><time>2026-05-10T00:57:13Z</time></trkpt>
</trkseg>
</trk>
<trk>
<name>negtv32</name>
<cmt>s</cmt>
<desc>Taviers Sentier n°32 </desc>
<link href="https://chemins.be/taviers/sentier/32"/><trkseg>
<trkpt lat="50.616734" lon="4.931574"><time>2026-05-09T23:37:13Z</time></trkpt>
<trkpt lat="50.616654" lon="4.931376"><time>2026-05-09T23:47:13Z</time></trkpt>
</trkseg></trk>
<trk>
<name>negtv32</name>
<cmt>v</cmt>
<desc>Taviers Sentier n°32 </desc>
<link href="https://chemins.be/taviers/sentier/32"/><trkseg>
<trkpt lat="50.616654" lon="4.931376"><time>2026-05-09T23:47:13Z</time></trkpt>
<trkpt lat="50.616512" lon="4.931091"><time>2026-05-09T23:57:13Z</time></trkpt>
<trkpt lat="50.616439" lon="4.931204"><time>2026-05-10T00:07:13Z</time></trkpt>
<trkpt lat="50.616349" lon="4.931217"><time>2026-05-10T00:17:13Z</time></trkpt>
</trkseg></trk>
<trk>
<name>negtv32</name>
<cmt>d</cmt>
<desc>Taviers Sentier n°32 </desc>
<link href="https://chemins.be/taviers/sentier/32"/><trkseg>
<trkpt lat="50.616349" lon="4.931217"><time>2026-05-10T00:17:13Z</time></trkpt>
<trkpt lat="50.615980" lon="4.931325"><time>2026-05-10T00:27:13Z</time></trkpt>
<trkpt lat="50.615782" lon="4.931394"><time>2026-05-10T00:37:13Z</time></trkpt>
</trkseg></trk>
<trk>
<name>negtv32</name>
<cmt>s</cmt>
<desc>Taviers Sentier n°32 </desc>
<link href="https://chemins.be/taviers/sentier/32"/><trkseg>
<trkpt lat="50.615782" lon="4.931394"><time>2026-05-10T00:37:13Z</time></trkpt>
<trkpt lat="50.615649" lon="4.930954"><time>2026-05-10T00:47:13Z</time></trkpt>
<trkpt lat="50.615652" lon="4.930304"><time>2026-05-10T00:57:13Z</time></trkpt>
<trkpt lat="50.615530" lon="4.929525"><time>2026-05-10T01:07:13Z</time></trkpt>
<trkpt lat="50.615524" lon="4.928875"><time>2026-05-10T01:17:13Z</time></trkpt>
</trkseg>
</trk>
<trk>
<name>negtv33</name>
<cmt>s</cmt>
<desc>Taviers Sentier n°33 </desc>
<link href="https://chemins.be/taviers/sentier/33"/><trkseg>
<trkpt lat="50.616814" lon="4.929993"><time>2026-05-09T23:37:13Z</time></trkpt>
<trkpt lat="50.615635" lon="4.930177"><time>2026-05-09T23:47:13Z</time></trkpt>
</trkseg>
</trk>
<trk>
<name>negtv34</name>
<cmt>v</cmt>
<desc>Taviers Sentier n°34 </desc>
<link href="https://chemins.be/taviers/sentier/34"/><trkseg>
<trkpt lat="50.616655" lon="4.929426"><time>2026-05-09T23:37:13Z</time></trkpt>
<trkpt lat="50.615980" lon="4.929545"><time>2026-05-09T23:47:13Z</time></trkpt>
</trkseg></trk>
<trk>
<name>negtv34</name>
<cmt>q</cmt>
<desc>Taviers Sentier n°34 </desc>
<link href="https://chemins.be/taviers/sentier/34"/><trkseg>
<trkpt lat="50.615980" lon="4.929545"><time>2026-05-09T23:47:13Z</time></trkpt>
<trkpt lat="50.615583" lon="4.929780"><time>2026-05-09T23:57:13Z</time></trkpt>
</trkseg>
</trk>
<trk>
<name>negtv35</name>
<cmt>r</cmt>
<desc>Taviers Sentier n°35 Rue du Warichet</desc>
<link href="https://chemins.be/taviers/sentier/35"/><trkseg>
<trkpt lat="50.617159" lon="4.931014"><time>2026-05-09T23:37:13Z</time></trkpt>
<trkpt lat="50.617417" lon="4.931710"><time>2026-05-09T23:47:13Z</time></trkpt>
<trkpt lat="50.617620" lon="4.932433"><time>2026-05-09T23:57:13Z</time></trkpt>
<trkpt lat="50.617867" lon="4.933439"><time>2026-05-10T00:07:13Z</time></trkpt>
</trkseg>
</trk>
<trk>
<name>negtv36</name>
<cmt>v</cmt>
<desc>Taviers Sentier n°36 </desc>
<link href="https://chemins.be/taviers/sentier/36"/><trkseg>
<trkpt lat="50.617089" lon="4.930745"><time>2026-05-09T23:37:13Z</time></trkpt>
<trkpt lat="50.617801" lon="4.930386"><time>2026-05-09T23:47:13Z</time></trkpt>
</trkseg>
</trk>
<trk>
<name>negtv37</name>
<cmt>v</cmt>
<desc>Taviers Sentier n°37 </desc>
<link href="https://chemins.be/taviers/sentier/37"/><trkseg>
<trkpt lat="50.616798" lon="4.929555"><time>2026-05-09T23:37:13Z</time></trkpt>
<trkpt lat="50.617617" lon="4.929268"><time>2026-05-09T23:47:13Z</time></trkpt>
</trkseg>
</trk>
<trk>
<name>negtv38</name>
<cmt>s</cmt>
<desc>Taviers Sentier n°38 </desc>
<link href="https://chemins.be/taviers/sentier/38"/><trkseg>
<trkpt lat="50.620153" lon="4.934710"><time>2026-05-09T23:37:13Z</time></trkpt>
<trkpt lat="50.620990" lon="4.934579"><time>2026-05-09T23:47:13Z</time></trkpt>
<trkpt lat="50.623006" lon="4.934038"><time>2026-05-09T23:57:13Z</time></trkpt>
</trkseg>
</trk>
<trk>
<name>negtv4</name>
<cmt>r</cmt>
<desc>Taviers Chemin n°4 Bas Tige</desc>
<link href="https://chemins.be/taviers/chemin/4"/><trkseg>
<trkpt lat="50.617713" lon="4.926188"><time>2026-05-09T23:37:13Z</time></trkpt>
<trkpt lat="50.620473" lon="4.924271"><time>2026-05-09T23:47:13Z</time></trkpt>
<trkpt lat="50.623500" lon="4.922992"><time>2026-05-09T23:57:13Z</time></trkpt>
</trkseg></trk>
<trk>
<name>negtv4</name>
<cmt>s</cmt>
<desc>Taviers Chemin n°4 Bas Tige</desc>
<link href="https://chemins.be/taviers/chemin/4"/><trkseg>
<trkpt lat="50.623500" lon="4.922992"><time>2026-05-09T23:57:13Z</time></trkpt>
<trkpt lat="50.625677" lon="4.920827"><time>2026-05-10T00:07:13Z</time></trkpt>
</trkseg>
</trk>
<trk>
<name>negtv40</name>
<cmt>s</cmt>
<desc>Taviers Sentier n°40 </desc>
<link href="https://chemins.be/taviers/sentier/40"/><trkseg>
<trkpt lat="50.620553" lon="4.942982"><time>2026-05-09T23:37:13Z</time></trkpt>
<trkpt lat="50.620876" lon="4.944936"><time>2026-05-09T23:47:13Z</time></trkpt>
</trkseg>
</trk>
<trk>
<name>negtv41</name>
<cmt>v</cmt>
<desc>Taviers Sentier n°41 </desc>
<link href="https://chemins.be/taviers/sentier/41"/><trkseg>
<trkpt lat="50.619790" lon="4.944555"><time>2026-05-09T23:37:13Z</time></trkpt>
<trkpt lat="50.620187" lon="4.946143"><time>2026-05-09T23:47:13Z</time></trkpt>
</trkseg></trk>
<trk>
<name>negtv41</name>
<cmt>q</cmt>
<desc>Taviers Sentier n°41 </desc>
<link href="https://chemins.be/taviers/sentier/41"/><trkseg>
<trkpt lat="50.620187" lon="4.946143"><time>2026-05-09T23:47:13Z</time></trkpt>
<trkpt lat="50.620763" lon="4.947832"><time>2026-05-09T23:57:13Z</time></trkpt>
</trkseg>
</trk>
<trk>
<name>negtv42</name>
<cmt>q</cmt>
<desc>Taviers Sentier n°42 </desc>
<link href="https://chemins.be/taviers/sentier/42"/><trkseg>
<trkpt lat="50.619294" lon="4.941285"><time>2026-05-09T23:37:13Z</time></trkpt>
<trkpt lat="50.619662" lon="4.943254"><time>2026-05-09T23:47:13Z</time></trkpt>
<trkpt lat="50.619230" lon="4.943418"><time>2026-05-09T23:57:13Z</time></trkpt>
</trkseg>
</trk>
<trk>
<name>negtv43</name>
<cmt>s</cmt>
<desc>Taviers Sentier n°43 </desc>
<link href="https://chemins.be/taviers/sentier/43"/><trkseg>
<trkpt lat="50.614818" lon="4.937288"><time>2026-05-09T23:37:13Z</time></trkpt>
<trkpt lat="50.614579" lon="4.933018"><time>2026-05-09T23:47:13Z</time></trkpt>
<trkpt lat="50.613451" lon="4.931973"><time>2026-05-09T23:57:13Z</time></trkpt>
</trkseg>
</trk>
<trk>
<name>negtv44</name>
<cmt>s</cmt>
<desc>Taviers Sentier n°44 </desc>
<link href="https://chemins.be/taviers/sentier/44"/><trkseg>
<trkpt lat="50.612856" lon="4.941560"><time>2026-05-09T23:37:13Z</time></trkpt>
<trkpt lat="50.611752" lon="4.939258"><time>2026-05-09T23:47:13Z</time></trkpt>
<trkpt lat="50.610485" lon="4.937377"><time>2026-05-09T23:57:13Z</time></trkpt>
</trkseg>
</trk>
<trk>
<name>negtv45</name>
<cmt>r</cmt>
<desc>Taviers Sentier n°45 Rue Léon Hanozet</desc>
<link href="https://chemins.be/taviers/sentier/45"/><trkseg>
<trkpt lat="50.613330" lon="4.925204"><time>2026-05-09T23:37:13Z</time></trkpt>
<trkpt lat="50.611555" lon="4.924321"><time>2026-05-09T23:47:13Z</time></trkpt>
<trkpt lat="50.609639" lon="4.922617"><time>2026-05-09T23:57:13Z</time></trkpt>
</trkseg>
</trk>
<trk>
<name>negtv46</name>
<cmt>s</cmt>
<desc>Taviers Sentier n°46 </desc>
<link href="https://chemins.be/taviers/sentier/46"/><trkseg>
<trkpt lat="50.613356" lon="4.915963"><time>2026-05-09T23:37:13Z</time></trkpt>
<trkpt lat="50.613864" lon="4.916888"><time>2026-05-09T23:47:13Z</time></trkpt>
<trkpt lat="50.614542" lon="4.918181"><time>2026-05-09T23:57:13Z</time></trkpt>
<trkpt lat="50.614746" lon="4.918749"><time>2026-05-10T00:07:13Z</time></trkpt>
<trkpt lat="50.614824" lon="4.919273"><time>2026-05-10T00:17:13Z</time></trkpt>
<trkpt lat="50.614606" lon="4.919751"><time>2026-05-10T00:27:13Z</time></trkpt>
<trkpt lat="50.614514" lon="4.920159"><time>2026-05-10T00:37:13Z</time></trkpt>
<trkpt lat="50.614666" lon="4.922252"><time>2026-05-10T00:47:13Z</time></trkpt>
<trkpt lat="50.614965" lon="4.923570"><time>2026-05-10T00:57:13Z</time></trkpt>
<trkpt lat="50.615250" lon="4.924336"><time>2026-05-10T01:07:13Z</time></trkpt>
</trkseg>
</trk>
<trk>
<name>negtv47</name>
<cmt>s</cmt>
<desc>Taviers Sentier n°47 </desc>
<link href="https://chemins.be/taviers/sentier/47"/><trkseg>
<trkpt lat="50.613384" lon="4.915865"><time>2026-05-09T23:37:13Z</time></trkpt>
<trkpt lat="50.612460" lon="4.917366"><time>2026-05-09T23:47:13Z</time></trkpt>
<trkpt lat="50.612115" lon="4.917955"><time>2026-05-09T23:57:13Z</time></trkpt>
<trkpt lat="50.611762" lon="4.918502"><time>2026-05-10T00:07:13Z</time></trkpt>
</trkseg>
</trk>
<trk>
<name>negtv48</name>
<cmt>s</cmt>
<desc>Taviers Sentier n°48 </desc>
<link href="https://chemins.be/taviers/sentier/48"/><trkseg>
<trkpt lat="50.628067" lon="4.897887"><time>2026-05-09T23:37:13Z</time></trkpt>
<trkpt lat="50.628856" lon="4.900256"><time>2026-05-09T23:47:13Z</time></trkpt>
</trkseg>
</trk>
<trk>
<name>negtv49</name>
<cmt>s</cmt>
<desc>Taviers Sentier n°49 Rue Ernest Feron</desc>
<link href="https://chemins.be/taviers/sentier/49"/><trkseg>
<trkpt lat="50.613834" lon="4.927061"><time>2026-05-09T23:37:13Z</time></trkpt>
<trkpt lat="50.613271" lon="4.928156"><time>2026-05-09T23:47:13Z</time></trkpt>
<trkpt lat="50.612687" lon="4.928248"><time>2026-05-09T23:57:13Z</time></trkpt>
</trkseg>
</trk>
<trk>
<name>negtv5</name>
<cmt>r</cmt>
<desc>Taviers Chemin n°5 Rue Romaine / Chaussée Romaine</desc>
<link href="https://chemins.be/taviers/chemin/5"/><trkseg>
<trkpt lat="50.628292" lon="4.943331"><time>2026-05-09T23:37:13Z</time></trkpt>
<trkpt lat="50.625496" lon="4.932258"><time>2026-05-09T23:47:13Z</time></trkpt>
<trkpt lat="50.623497" lon="4.924257"><time>2026-05-09T23:57:13Z</time></trkpt>
<trkpt lat="50.623461" lon="4.921353"><time>2026-05-10T00:07:13Z</time></trkpt>
<trkpt lat="50.623815" lon="4.917145"><time>2026-05-10T00:17:13Z</time></trkpt>
<trkpt lat="50.623903" lon="4.913754"><time>2026-05-10T00:27:13Z</time></trkpt>
<trkpt lat="50.623649" lon="4.910401"><time>2026-05-10T00:37:13Z</time></trkpt>
<trkpt lat="50.623497" lon="4.906386"><time>2026-05-10T00:47:13Z</time></trkpt>
<trkpt lat="50.623089" lon="4.904031"><time>2026-05-10T00:57:13Z</time></trkpt>
<trkpt lat="50.622522" lon="4.900760"><time>2026-05-10T01:07:13Z</time></trkpt>
</trkseg>
</trk>
<trk>
<name>negtv50</name>
<cmt>d</cmt>
<desc>Taviers Sentier n°50 </desc>
<link href="https://chemins.be/taviers/sentier/50"/><trkseg>
<trkpt lat="50.615981" lon="4.916121"><time>2026-05-09T23:37:13Z</time></trkpt>
<trkpt lat="50.615572" lon="4.916964"><time>2026-05-09T23:47:13Z</time></trkpt>
<trkpt lat="50.615085" lon="4.917411"><time>2026-05-09T23:57:13Z</time></trkpt>
</trkseg>
</trk>
<trk>
<name>negtv51</name>
<cmt>d</cmt>
<desc>Taviers Sentier n°51 </desc>
<link href="https://chemins.be/taviers/sentier/51"/><trkseg>
<trkpt lat="50.618391" lon="4.915937"><time>2026-05-09T23:37:13Z</time></trkpt>
<trkpt lat="50.619782" lon="4.914427"><time>2026-05-09T23:47:13Z</time></trkpt>
<trkpt lat="50.619845" lon="4.910739"><time>2026-05-09T23:57:13Z</time></trkpt>
<trkpt lat="50.619836" lon="4.908634"><time>2026-05-10T00:07:13Z</time></trkpt>
</trkseg></trk>
<trk>
<name>negtv51</name>
<cmt>s</cmt>
<desc>Taviers Sentier n°51 </desc>
<link href="https://chemins.be/taviers/sentier/51"/><trkseg>
<trkpt lat="50.619836" lon="4.908634"><time>2026-05-10T00:07:13Z</time></trkpt>
<trkpt lat="50.619929" lon="4.908154"><time>2026-05-10T00:17:13Z</time></trkpt>
<trkpt lat="50.619948" lon="4.905837"><time>2026-05-10T00:27:13Z</time></trkpt>
<trkpt lat="50.620297" lon="4.904300"><time>2026-05-10T00:37:13Z</time></trkpt>
</trkseg>
</trk>
<trk>
<name>negtv52</name>
<cmt>r</cmt>
<desc>Taviers Sentier n°52 Route de la Hesbaye</desc>
<link href="https://chemins.be/taviers/sentier/52"/><trkseg>
<trkpt lat="50.617148" lon="4.925941"><time>2026-05-09T23:37:13Z</time></trkpt>
<trkpt lat="50.616774" lon="4.925131"><time>2026-05-09T23:47:13Z</time></trkpt>
<trkpt lat="50.616438" lon="4.923940"><time>2026-05-09T23:57:13Z</time></trkpt>
<trkpt lat="50.616042" lon="4.922240"><time>2026-05-10T00:07:13Z</time></trkpt>
</trkseg>
</trk>
<trk>
<name>negtv6</name>
<cmt>r</cmt>
<desc>Taviers Chemin n°6 Rue de Franquenée / Route de la Hesbaye / Rue Romaine</desc>
<link href="https://chemins.be/taviers/chemin/6"/><trkseg>
<trkpt lat="50.612909" lon="4.941589"><time>2026-05-09T23:37:13Z</time></trkpt>
<trkpt lat="50.613612" lon="4.941301"><time>2026-05-09T23:47:13Z</time></trkpt>
<trkpt lat="50.615850" lon="4.941427"><time>2026-05-09T23:57:13Z</time></trkpt>
<trkpt lat="50.617639" lon="4.941378"><time>2026-05-10T00:07:13Z</time></trkpt>
<trkpt lat="50.619007" lon="4.941197"><time>2026-05-10T00:17:13Z</time></trkpt>
<trkpt lat="50.619771" lon="4.941291"><time>2026-05-10T00:27:13Z</time></trkpt>
<trkpt lat="50.620305" lon="4.940449"><time>2026-05-10T00:37:13Z</time></trkpt>
<trkpt lat="50.621170" lon="4.940149"><time>2026-05-10T00:47:13Z</time></trkpt>
<trkpt lat="50.621114" lon="4.938749"><time>2026-05-10T00:57:13Z</time></trkpt>
</trkseg></trk>
<trk>
<name>negtv6</name>
<cmt>s</cmt>
<desc>Taviers Chemin n°6 Rue de Franquenée / Route de la Hesbaye / Rue Romaine</desc>
<link href="https://chemins.be/taviers/chemin/6"/><trkseg>
<trkpt lat="50.621114" lon="4.938749"><time>2026-05-10T00:57:13Z</time></trkpt>
<trkpt lat="50.621600" lon="4.936678"><time>2026-05-10T01:07:13Z</time></trkpt>
<trkpt lat="50.623069" lon="4.934053"><time>2026-05-10T01:17:13Z</time></trkpt>
</trkseg></trk>
<trk>
<name>negtv6</name>
<cmt>r</cmt>
<desc>Taviers Chemin n°6 Rue de Franquenée / Route de la Hesbaye / Rue Romaine</desc>
<link href="https://chemins.be/taviers/chemin/6"/><trkseg>
<trkpt lat="50.623069" lon="4.934053"><time>2026-05-10T01:17:13Z</time></trkpt>
<trkpt lat="50.624711" lon="4.933012"><time>2026-05-10T01:27:13Z</time></trkpt>
<trkpt lat="50.625550" lon="4.932301"><time>2026-05-10T01:37:13Z</time></trkpt>
<trkpt lat="50.627026" lon="4.930029"><time>2026-05-10T01:47:13Z</time></trkpt>
</trkseg>
</trk>
<trk>
<name>negtv7</name>
<cmt>s</cmt>
<desc>Taviers Chemin n°7 Rue Ernest Féron</desc>
<link href="https://chemins.be/taviers/chemin/7"/><trkseg>
<trkpt lat="50.617691" lon="4.945477"><time>2026-05-09T23:37:13Z</time></trkpt>
<trkpt lat="50.617991" lon="4.943007"><time>2026-05-09T23:47:13Z</time></trkpt>
<trkpt lat="50.617728" lon="4.941605"><time>2026-05-09T23:57:13Z</time></trkpt>
<trkpt lat="50.616175" lon="4.939396"><time>2026-05-10T00:07:13Z</time></trkpt>
<trkpt lat="50.614060" lon="4.936191"><time>2026-05-10T00:17:13Z</time></trkpt>
<trkpt lat="50.613799" lon="4.936188"><time>2026-05-10T00:27:13Z</time></trkpt>
<trkpt lat="50.612224" lon="4.934686"><time>2026-05-10T00:37:13Z</time></trkpt>
</trkseg></trk>
<trk>
<name>negtv7</name>
<cmt>r</cmt>
<desc>Taviers Chemin n°7 Rue Ernest Féron</desc>
<link href="https://chemins.be/taviers/chemin/7"/><trkseg>
<trkpt lat="50.612224" lon="4.934686"><time>2026-05-10T00:37:13Z</time></trkpt>
<trkpt lat="50.611686" lon="4.934284"><time>2026-05-10T00:47:13Z</time></trkpt>
</trkseg>
</trk>
<trk>
<name>negtv8</name>
<cmt>s</cmt>
<desc>Taviers Chemin n°8 Rue Romaine</desc>
<link href="https://chemins.be/taviers/chemin/8"/><trkseg>
<trkpt lat="50.619213" lon="4.934006"><time>2026-05-09T23:37:13Z</time></trkpt>
<trkpt lat="50.620082" lon="4.934582"><time>2026-05-09T23:47:13Z</time></trkpt>
<trkpt lat="50.621737" lon="4.936326"><time>2026-05-09T23:57:13Z</time></trkpt>
<trkpt lat="50.625117" lon="4.939985"><time>2026-05-10T00:07:13Z</time></trkpt>
</trkseg></trk>
<trk>
<name>negtv8</name>
<cmt>r</cmt>
<desc>Taviers Chemin n°8 Rue Romaine</desc>
<link href="https://chemins.be/taviers/chemin/8"/><trkseg>
<trkpt lat="50.625117" lon="4.939985"><time>2026-05-10T00:07:13Z</time></trkpt>
<trkpt lat="50.627594" lon="4.940877"><time>2026-05-10T00:17:13Z</time></trkpt>
<trkpt lat="50.629927" lon="4.941810"><time>2026-05-10T00:27:13Z</time></trkpt>
</trkseg></trk>
<trk>
<name>negtv8</name>
<cmt>s</cmt>
<desc>Taviers Chemin n°8 Rue Romaine</desc>
<link href="https://chemins.be/taviers/chemin/8"/><trkseg>
<trkpt lat="50.629927" lon="4.941810"><time>2026-05-10T00:27:13Z</time></trkpt>
<trkpt lat="50.630861" lon="4.942005"><time>2026-05-10T00:37:13Z</time></trkpt>
<trkpt lat="50.632645" lon="4.941235"><time>2026-05-10T00:47:13Z</time></trkpt>
<trkpt lat="50.633004" lon="4.941310"><time>2026-05-10T00:57:13Z</time></trkpt>
</trkseg>
</trk>
<trk>
<name>negtv9</name>
<cmt>s</cmt>
<desc>Taviers Chemin n°9 </desc>
<link href="https://chemins.be/taviers/chemin/9"/><trkseg>
<trkpt lat="50.630002" lon="4.942956"><time>2026-05-09T23:37:13Z</time></trkpt>
<trkpt lat="50.630278" lon="4.941800"><time>2026-05-09T23:47:13Z</time></trkpt>
<trkpt lat="50.630885" lon="4.940677"><time>2026-05-09T23:57:13Z</time></trkpt>
<trkpt lat="50.631492" lon="4.938083"><time>2026-05-10T00:07:13Z</time></trkpt>
<trkpt lat="50.632025" lon="4.933665"><time>2026-05-10T00:17:13Z</time></trkpt>
</trkseg>
</trk>
<trk>
<name>negtvi1</name>
<cmt>r</cmt>
<desc>Taviers Chemin n°i1 Route de la Hesbaye</desc>
<link href="https://chemins.be/taviers/chemin/i1"/><trkseg>
<trkpt lat="50.620791" lon="4.936597"><time>2026-05-09T23:37:13Z</time></trkpt>
<trkpt lat="50.622853" lon="4.934234"><time>2026-05-09T23:47:13Z</time></trkpt>
</trkseg>
</trk>
<trk>
<name>negtvi2</name>
<cmt>q</cmt>
<desc>Taviers Chemin n°i2 </desc>
<link href="https://chemins.be/taviers/chemin/i2"/><trkseg>
<trkpt lat="50.619240" lon="4.933950"><time>2026-05-09T23:37:13Z</time></trkpt>
<trkpt lat="50.621008" lon="4.934508"><time>2026-05-09T23:47:13Z</time></trkpt>
</trkseg>
</trk>
<trk>
<name>negtvi3</name>
<cmt>r</cmt>
<desc>Taviers Chemin n°i3 Rue Ernest Féron</desc>
<link href="https://chemins.be/taviers/chemin/i3"/><trkseg>
<trkpt lat="50.612614" lon="4.928431"><time>2026-05-09T23:37:13Z</time></trkpt>
<trkpt lat="50.612132" lon="4.929527"><time>2026-05-09T23:47:13Z</time></trkpt>
</trkseg>
</trk>
<trk>
<name>negtvi4</name>
<cmt>r</cmt>
<desc>Taviers Chemin n°i4 </desc>
<link href="https://chemins.be/taviers/chemin/i4"/><trkseg>
<trkpt lat="50.627208" lon="4.929664"><time>2026-05-09T23:37:13Z</time></trkpt>
<trkpt lat="50.631777" lon="4.933083"><time>2026-05-09T23:47:13Z</time></trkpt>
</trkseg>
</trk>
<trk>
<name>negtvL142</name>
<cmt>v</cmt>
<desc>Taviers Chemin n°L142 Tronçon de la ligne L142 à Taviers / RAVeL 2 L142</desc>
<link href="https://chemins.be/taviers/chemin/L142"/><trkseg>
<trkpt lat="50.618849" lon="4.902405"><time>2026-05-09T23:37:13Z</time></trkpt>
<trkpt lat="50.622632" lon="4.900808"><time>2026-05-09T23:47:13Z</time></trkpt>
<trkpt lat="50.628199" lon="4.898440"><time>2026-05-09T23:57:13Z</time></trkpt>
</trkseg>
</trk>
<trk>
<name>negtvL143</name>
<cmt>q</cmt>
<desc>Taviers Chemin n°L143 </desc>
<link href="https://chemins.be/taviers/chemin/L143"/><trkseg>
<trkpt lat="50.617230" lon="4.908392"><time>2026-05-09T23:37:13Z</time></trkpt>
<trkpt lat="50.618870" lon="4.911519"><time>2026-05-09T23:47:13Z</time></trkpt>
<trkpt lat="50.620428" lon="4.914802"><time>2026-05-09T23:57:13Z</time></trkpt>
<trkpt lat="50.621301" lon="4.916494"><time>2026-05-10T00:07:13Z</time></trkpt>
<trkpt lat="50.621410" lon="4.918120"><time>2026-05-10T00:17:13Z</time></trkpt>
<trkpt lat="50.622230" lon="4.923486"><time>2026-05-10T00:27:13Z</time></trkpt>
<trkpt lat="50.624027" lon="4.933075"><time>2026-05-10T00:37:13Z</time></trkpt>
<trkpt lat="50.624520" lon="4.936519"><time>2026-05-10T00:47:13Z</time></trkpt>
</trkseg></trk>
<trk>
<name>negtvL143</name>
<cmt>s</cmt>
<desc>Taviers Chemin n°L143 </desc>
<link href="https://chemins.be/taviers/chemin/L143"/><trkseg>
<trkpt lat="50.624520" lon="4.936519"><time>2026-05-10T00:47:13Z</time></trkpt>
<trkpt lat="50.625592" lon="4.944018"><time>2026-05-10T00:57:13Z</time></trkpt>
</trkseg>
</trk>
</gpx>